Flag for U.S.A. Weather past 2 weeks in Pomona, California, U.S.A.

Now
46 °F

Fog.


Feels Like: 46 °F
Forecast: 48 / 69 °F
Wind: No wind

Location: Chino Airport

Current Time: Dec 21, 2014 at 4:31:07 AM

Latest Report: Dec 21, 2014 at 3:53 AM


Visibility: 2 mi

Pressure: 30.13 "Hg

Humidity: 93%

Dew point: 44 °F

Location of PomonaLocation

Historic Weather in Pomona — Graph

°F

Pomona temperature yesterday

Maximum temperature yesterday: 59 °F (at 1:53 PM)
Minimum temperature yesterday: 43 °F (at 2:59 AM)
Average temperature yesterday: 51 °F

Past Weeks' High & Low Weather Summary

 TemperatureHumidityPressure
High79 °F (Dec 8, 2:53 PM)100% (Dec 6, 4:53 AM)30.26 "Hg (Dec 6, 4:53 AM)
Low41 °F (Dec 14, 3:02 AM)27% (Dec 10, 12:53 PM)29.84 "Hg (Dec 12, 3:53 AM)
Average55 °F78%30.08 "Hg
* Reported Dec 6 2:53 AM — Dec 21 2:53 AM, Pomona, Weather by CustomWeather, © 2014

Note: Actual official high and low records may vary slightly from our data, if they occured in-between our weather recording intervals... More about our weather records

Advertising

Pomona weather history for previous 24 hours

 ConditionsComfort  
Time TempWeatherWind HumidityBarometerVisibility
2:53 AM
Dec 21
47 °FFog.No wind93%30.14 "Hg2 mi
1:58 AM43 °FFog.3 mph97%30.16 "Hg1 mi
1:03 AM46 °FFog.No wind96%30.17 "Hg2 mi
12:53 AM46 °FFog.No wind93%30.17 "Hg3 mi
11:53 PM
Dec 20
49 °FFog.3 mph90%30.17 "Hg3 mi
10:53 PM49 °FFog.No wind90%30.17 "Hg3 mi
10:01 PM49 °FFog.5 mph93%30.17 "Hg3 mi
9:53 PM50 °FFog.3 mph89%30.16 "Hg2 mi
8:53 PM51 °FFog.3 mph89%30.17 "Hg4 mi
7:53 PM49 °FFog.No wind93%30.17 "Hg4 mi
6:53 PM51 °FFog.3 mph89%30.16 "Hg4 mi
5:53 PM54 °FPassing clouds.No wind83%30.16 "Hg4 mi
4:53 PM54 °FPassing clouds.No wind77%30.15 "Hg6 mi
3:53 PM58 °FBroken clouds.No wind70%30.13 "Hg6 mi
2:53 PM59 °FBroken clouds.No wind67%30.12 "Hg7 mi
1:53 PM59 °FBroken clouds.No wind64%30.13 "Hg7 mi
12:53 PM58 °FBroken clouds.No wind67%30.16 "Hg7 mi
11:53 AM57 °FBroken clouds.No wind69%30.16 "Hg6 mi
10:53 AM56 °FBroken clouds.No wind72%30.20 "Hg6 mi
9:53 AM53 °FBroken clouds.3 mph80%30.22 "Hg5 mi
8:53 AM49 °FFog.No wind90%30.21 "Hg5 mi
7:53 AM45 °FFog.No wind97%30.19 "Hg5 mi
6:53 AM43 °FFog.No wind97%30.19 "Hg4 mi
5:53 AM46 °FFog.No wind96%30.16 "Hg4 mi
5:01 AM46 °FFog.3 mph96%30.15 "Hg3 mi
4:01 AM45 °FFog.No wind97%30.16 "Hg1 mi
Weather by CustomWeather, © 2014

See weather overviewHow to use our weather pages